GW4074 Weather Reports


time (UTC)temp
C
wind
direction
speed
KPH
gust
KPH
rain 1hr
cm
rain 24hr
cm
rain mn
cm
humidity
%
barometer
mb
20260506134301 9 138 3.2 6.4 0.00 0.03 0.03 99 1018.0
20260506133758 9 154 3.2 6.4 0.00 0.03 0.03 99 1018.1
20260506133255 9 143 4.8 4.8 0.00 0.03 0.03 99 1018.1
20260506132752 9 99 3.2 4.8 0.00 0.03 0.03 99 1018.0
20260506132249 9 184 0.0 6.4 0.00 0.03 0.03 99 1017.9
20260506131747 9 118 1.6 4.8 0.00 0.03 0.03 99 1018.1
20260506131243 9 116 4.8 6.4 0.00 0.03 0.03 99 1018.1
20260506130740 9 93 1.6 4.8 0.05 0.03 0.03 99 1018.0
20260506130237 9 108 3.2 4.8 0.05 0.03 0.03 99 1018.0
20260506125735 9 137 3.2 4.8 0.00 0.03 0.03 99 1017.9
20260506125233 9 92 1.6 4.8 0.00 0.03 0.03 99 1018.1
20260506124731 9 119 3.2 4.8 0.00 0.03 0.03 99 1018.0
20260506124228 9 114 4.8 4.8 0.05 0.03 0.03 99 1017.9
20260506123725 9 145 1.6 4.8 0.05 0.03 0.03 99 1018.1
20260506123224 9 121 0.0 4.8 0.00 0.00 0.00 99 1017.9
20260506122720 9 164 3.2 4.8 0.00 0.00 0.00 99 1017.8
20260506122218 9 97 0.0 3.2 0.00 0.00 0.00 99 1017.9
20260506121715 9 159 0.0 6.4 0.00 0.00 0.00 99 1017.7
20260506121212 9 114 3.2 4.8 0.05 0.00 0.00 99 1018.0
20260506120710 9 57 3.2 3.2 0.05 0.00 0.00 99 1017.8
20260506120207 9 106 1.6 4.8 0.00 0.00 0.00 99 1017.8
20260506115705 9 107 1.6 4.8 0.00 0.00 0.00 99 1017.6
20260506115203 9 122 3.2 4.8 0.00 0.00 0.00 99 1017.5
20260506114700 9 106 1.6 3.2 0.00 0.00 0.00 99 1017.7
20260506114158 9 85 1.6 3.2 0.00 0.00 0.00 99 1017.6
20260506113656 9 110 3.2 3.2 0.00 0.00 0.00 99 1017.6
20260506113153 9 115 3.2 6.4 0.00 0.00 0.00 99 1017.6
20260506112649 9 63 3.2 3.2 0.00 0.00 0.00 99 1017.5
20260506112147 9 121 3.2 4.8 0.00 0.00 0.00 99 1017.5
20260506111644 9 106 3.2 3.2 0.00 0.00 0.00 99 1017.4
20260506111142 9 105 3.2 4.8 0.00 0.00 0.00 99 1017.5
20260506110639 9 97 3.2 4.8 0.00 0.00 0.00 99 1017.4
20260506110136 9 116 3.2 4.8 0.00 0.00 0.00 99 1017.3
20260506105633 9 114 0.0 6.4 0.00 0.00 0.00 99 1017.4
20260506105130 9 139 3.2 6.4 0.00 0.00 0.00 99 1017.0
20260506104628 9 94 1.6 6.4 0.00 0.00 0.00 99 1017.0
20260506104125 9 121 3.2 6.4 0.00 0.00 0.00 99 1016.9
20260506103623 9 94 1.6 3.2 0.00 0.00 0.00 99 1016.8
20260506103119 9 113 3.2 3.2 0.00 0.00 0.00 99 1017.0
20260506102618 9 101 1.6 3.2 0.00 0.00 0.00 99 1016.9
20260506102115 9 129 3.2 3.2 0.00 0.00 0.00 99 1017.0
20260506101611 9 134 3.2 4.8 0.00 0.00 0.00 99 1016.9
20260506101108 9 114 3.2 3.2 0.00 0.00 0.00 99 1016.8
20260506100607 9 119 3.2 3.2 0.00 0.00 0.00 99 1017.0
20260506100104 9 107 3.2 3.2 0.00 0.00 0.00 99 1016.8
20260506095603 9 119 3.2 3.2 0.00 0.00 0.00 99 1016.8
20260506095059 9 123 3.2 4.8 0.00 0.00 0.00 99 1016.7
20260506094556 9 135 3.2 4.8 0.00 0.00 0.00 99 1016.9
20260506094054 9 131 0.0 3.2 0.00 0.00 0.00 99 1016.9
20260506093552 9 106 1.6 1.6 0.00 0.00 0.00 99 1017.0
20260506093049 9 107 1.6 3.2 0.00 0.00 0.00 99 1016.8
20260506092547 9 60 1.6 3.2 0.00 0.00 0.00 99 1016.7
20260506092044 9 85 0.0 3.2 0.00 0.00 0.00 99 1017.0
20260506091542 9 68 1.6 3.2 0.00 0.00 0.00 99 1016.8
20260506091039 9 133 3.2 3.2 0.00 0.00 0.00 99 1016.7
20260506090537 9 128 3.2 3.2 0.00 0.00 0.00 99 1016.6
20260506090033 9 99 3.2 3.2 0.00 0.00 0.00 99 1016.8
20260506085530 9 116 3.2 3.2 0.00 0.00 0.00 99 1016.8
20260506085026 9 104 3.2 3.2 0.00 0.00 0.00 99 1016.8
20260506084523 10 149 4.8 6.4 0.00 0.00 0.00 99 1016.8
20260506084019 10 103 1.6 1.6 0.00 0.00 0.00 99 1016.8
20260506083517 10 75 1.6 1.6 0.00 0.00 0.00 99 1016.7
20260506083014 10 84 1.6 3.2 0.00 0.00 0.00 99 1016.6
20260506082511 10 68 3.2 3.2 0.00 0.00 0.00 99 1016.7
20260506082006 10 66 1.6 4.8 0.00 0.00 0.00 99 1016.5
20260506081505 10 89 0.0 1.6 0.00 0.00 0.00 99 1016.6
20260506081002 10 94 1.6 1.6 0.00 0.00 0.00 99 1016.5
20260506080459 10 34 1.6 1.6 0.00 0.00 0.00 99 1016.3
20260506073443 9 42 3.2 3.2 0.00 0.00 0.00 99 1016.2
20260506072940 10 73 1.6 3.2 0.00 0.00 0.00 99 1016.1
20260506072437 10 46 3.2 3.2 0.00 0.00 0.00 99 1016.1
20260506071935 10 65 1.6 3.2 0.00 0.00 0.00 99 1016.1
20260506071433 10 46 3.2 3.2 0.00 0.00 0.00 99 1016.1
20260506070929 10 62 3.2 3.2 0.00 0.00 0.00 99 1016.1
20260506070426 9 52 3.2 3.2 0.00 0.00 0.00 99 1016.0
20260506062404 8 147 3.2 3.2 0.00 0.00 0.00 99 1016.0
20260506061859 8 104 3.2 3.2 0.00 0.00 0.00 99 1015.9
20260506061356 8 89 0.0 1.6 0.00 0.00 0.00 99 1015.8
20260506060854 8 117 0.0 1.6 0.00 0.00 0.00 99 1015.9
20260506060352 8 118 3.2 3.2 0.00 0.00 0.00 99 1015.8
20260506051324 10 116 1.6 3.2 0.00 0.00 0.00 97 1015.8
20260506050822 10 124 1.6 3.2 0.00 0.00 0.00 96 1015.7
20260506050319 10 84 0.0 3.2 0.00 0.00 0.00 96 1015.7
20260506044809 10 119 0.0 3.2 0.00 0.00 0.00 95 1015.4
20260506044307 11 93 3.2 3.2 0.00 0.00 0.00 96 1015.5
20260506043804 11 79 1.6 3.2 0.00 0.00 0.00 95 1015.4
20260506043301 11 31 3.2 3.2 0.00 0.00 0.00 95 1015.3
20260506042801 11 55 3.2 3.2 0.00 0.00 0.00 94 1015.3
20260506042258 11 48 3.2 3.2 0.00 0.00 0.00 94 1015.2
20260506041757 11 53 3.2 3.2 0.00 0.00 0.00 94 1015.2
20260506041253 11 49 3.2 3.2 0.00 0.00 0.00 94 1015.2
20260506040750 11 58 1.6 3.2 0.00 0.00 0.00 94 1014.9
20260506040247 11 56 3.2 3.2 0.00 0.00 0.00 94 1015.0
20260506035745 11 44 3.2 3.2 0.00 0.00 0.00 94 1015.0
20260506035241 11 53 3.2 3.2 0.00 0.00 0.00 94 1015.0
20260506034738 11 49 3.2 3.2 0.00 0.00 0.00 93 1014.8
20260506034235 11 63 3.2 3.2 0.00 0.00 0.00 94 1014.8
20260506033732 11 44 3.2 3.2 0.00 0.00 0.00 94 1014.8
20260506033230 11 44 1.6 3.2 0.00 0.00 0.00 92 1014.9
20260506032726 11 46 3.2 3.2 0.00 0.00 0.00 91 1014.9
20260506032223 11 101 3.2 3.2 0.00 0.00 0.00 91 1014.8
20260506031720 11 102 3.2 3.2 0.00 0.00 0.00 90 1014.9
20260506031217 11 84 1.6 3.2 0.00 0.00 0.00 90 1014.9
20260506030715 11 87 1.6 3.2 0.00 0.00 0.00 89 1014.9
20260506030212 12 89 0.0 3.2 0.00 0.00 0.00 89 1014.8
20260506025709 12 107 3.2 3.2 0.00 0.00 0.00 88 1014.9
20260506025206 12 114 3.2 3.2 0.00 0.00 0.00 88 1014.7
20260506024703 12 107 1.6 3.2 0.00 0.00 0.00 88 1014.9
20260506024159 12 107 3.2 3.2 0.00 0.00 0.00 88 1014.9
20260506023655 12 110 3.2 3.2 0.00 0.00 0.00 87 1014.8
20260506023153 13 73 1.6 3.2 0.00 0.00 0.00 87 1014.7
20260506022650 13 88 1.6 3.2 0.00 0.00 0.00 85 1014.7
20260506022147 13 100 3.2 3.2 0.00 0.00 0.00 85 1014.8
20260506021645 13 111 3.2 3.2 0.00 0.00 0.00 84 1014.7
20260506021142 13 111 1.6 3.2 0.00 0.00 0.00 85 1014.8
20260506020639 13 138 1.6 3.2 0.00 0.00 0.00 85 1014.9
20260506020137 13 110 4.8 4.8 0.00 0.00 0.00 85 1014.9
20260506015634 13 117 3.2 4.8 0.00 0.00 0.00 84 1014.9
20260506015131 13 111 3.2 4.8 0.00 0.00 0.00 83 1014.9
20260506014629 13 121 3.2 4.8 0.00 0.00 0.00 82 1014.9
20260506014124 14 102 3.2 4.8 0.00 0.00 0.00 82 1014.9
20260506013623 14 92 3.2 3.2 0.00 0.00 0.00 81 1014.9
20260506013119 14 125 3.2 8.0 0.00 0.00 0.00 81 1014.9
20260506012615 15 95 0.0 3.2 0.00 0.00 0.00 80 1015.1
20260506012111 15 110 3.2 6.4 0.00 0.00 0.00 80 1014.8
20260506011609 15 123 3.2 6.4 0.00 0.00 0.00 80 1014.9
20260506011105 15 123 4.8 6.4 0.00 0.00 0.00 79 1014.9
20260506010559 15 50 1.6 6.4 0.00 0.00 0.00 77 1014.9
20260506010055 16 123 3.2 4.8 0.00 0.00 0.00 76 1015.0
20260506005553 16 116 3.2 4.8 0.00 0.00 0.00 75 1015.1
20260506005048 17 114 3.2 4.8 0.00 0.00 0.00 72 1014.9
20260506004546 17 184 0.0 3.2 0.00 0.00 0.00 73 1014.8
20260506004043 17 156 3.2 4.8 0.00 0.00 0.00 74 1014.9
20260506003539 17 247 0.0 4.8 0.00 0.00 0.00 70 1015.0
20260506003035 17 84 3.2 4.8 0.00 0.00 0.00 73 1014.8
20260506002531 17 116 4.8 4.8 0.00 0.00 0.00 73 1015.1
20260506002027 17 120 4.8 4.8 0.00 0.00 0.00 73 1014.9
20260506001524 17 39 3.2 6.4 0.00 0.00 0.00 72 1015.1
20260506001021 17 103 0.0 4.8 0.00 0.00 0.00 71 1015.1
20260506000519 17 129 3.2 4.8 0.00 0.00 0.00 72 1015.0
20260506000016 17 126 1.6 4.8 0.00 0.00 0.00 73 1015.2
20260505235514 18 141 0.0 4.8 0.00 0.00 0.00 71 1015.1
20260505235010 18 124 3.2 4.8 0.00 0.00 0.00 70 1015.1
20260505234507 18 92 1.6 3.2 0.00 0.00 0.00 69 1015.2
20260505234004 18 149 0.0 3.2 0.00 0.00 0.00 69 1015.2
20260505233502 18 234 0.0 4.8 0.00 0.00 0.00 70 1015.1
20260505232959 17 118 3.2 6.4 0.00 0.00 0.00 72 1015.2
20260505232457 17 302 4.8 4.8 0.00 0.00 0.00 71 1015.4
20260505231954 17 107 3.2 6.4 0.00 0.00 0.00 73 1015.2
20260505231451 17 166 4.8 6.4 0.00 0.00 0.00 71 1015.2
20260505230949 17 91 4.8 4.8 0.00 0.00 0.00 72 1015.2
20260505230447 18 38 0.0 4.8 0.00 0.00 0.00 71 1015.4
20260505225943 18 35 4.8 6.4 0.00 0.00 0.00 70 1015.3
20260505225440 18 349 1.6 4.8 0.00 0.00 0.00 69 1015.4
20260505224936 19 147 1.6 8.0 0.00 0.00 0.00 69 1015.4
20260505224433 19 107 3.2 6.4 0.00 0.00 0.00 69 1015.3
20260505223930 18 136 3.2 3.2 0.00 0.00 0.00 69 1015.4
20260505223427 18 157 3.2 3.2 0.00 0.00 0.00 68 1015.3
20260505222923 18 112 3.2 6.4 0.00 0.00 0.00 71 1015.3
20260505222419 19 120 4.8 6.4 0.00 0.00 0.00 69 1015.3
20260505221915 18 317 3.2 6.4 0.00 0.00 0.00 70 1015.5
20260505221413 17 283 1.6 6.4 0.00 0.00 0.00 72 1015.5
20260505220910 17 93 3.2 9.7 0.00 0.00 0.00 72 1015.4
20260505220407 18 113 8.0 8.0 0.00 0.00 0.00 71 1015.6
20260505215905 18 185 3.2 8.0 0.00 0.00 0.00 72 1015.9
20260505215402 17 156 3.2 8.0 0.00 0.00 0.00 72 1015.7
20260505214900 18 168 6.4 12.9 0.00 0.00 0.00 71 1015.6
20260505214357 17 176 4.8 8.0 0.00 0.00 0.00 73 1015.8
20260505213855 17 149 4.8 8.0 0.00 0.00 0.00 72 1015.8
20260505213352 17 38 0.0 8.0 0.00 0.00 0.00 72 1015.9
20260505212848 18 120 4.8 9.7 0.00 0.00 0.00 74 1015.9
20260505212345 17 120 1.6 8.0 0.00 0.00 0.00 76 1016.0
20260505211841 17 123 4.8 4.8 0.00 0.00 0.00 75 1015.8
20260505211339 17 123 4.8 4.8 0.00 0.00 0.00 75 1015.8
20260505210836 16 177 9.7 9.7 0.00 0.00 0.00 76 1015.8
20260505210333 16 162 3.2 9.7 0.00 0.00 0.00 78 1015.9
20260505205829 17 149 4.8 9.7 0.00 0.00 0.00 76 1015.8
20260505205328 16 153 1.6 6.4 0.00 0.00 0.00 78 1015.7
20260505204824 16 120 4.8 4.8 0.00 0.00 0.00 76 1015.8
20260505204322 16 159 3.2 6.4 0.00 0.00 0.00 77 1015.7
20260505203819 16 115 3.2 6.4 0.00 0.00 0.00 80 1015.9
20260505203316 15 123 4.8 6.4 0.00 0.00 0.00 80 1015.9
20260505202812 15 169 3.2 8.0 0.00 0.00 0.00 82 1015.6
20260505202308 15 133 6.4 6.4 0.00 0.00 0.00 85 1015.9
20260505201805 14 174 9.7 9.7 0.00 0.00 0.00 84 1016.0
20260505201302 14 165 6.4 9.7 0.00 0.00 0.00 85 1016.0
20260505200800 13 144 3.2 6.4 0.00 0.00 0.00 87 1015.7
20260505200257 13 122 6.4 9.7 0.00 0.00 0.00 88 1015.8
20260505195752 13 121 3.2 8.0 0.00 0.00 0.00 87 1015.9
20260505195250 13 192 1.6 6.4 0.00 0.00 0.00 86 1015.9
20260505194747 13 153 6.4 6.4 0.00 0.00 0.00 88 1016.0
20260505194244 13 116 4.8 9.7 0.00 0.00 0.00 89 1015.9
20260505193739 13 142 4.8 6.4 0.00 0.00 0.00 88 1015.9
20260505193237 13 155 1.6 8.0 0.00 0.00 0.00 89 1015.8
20260505192736 13 114 4.8 6.4 0.00 0.00 0.00 89 1015.8
20260505192233 13 128 3.2 6.4 0.00 0.00 0.00 90 1015.8
20260505191731 13 124 3.2 6.4 0.00 0.00 0.00 89 1015.7
20260505191229 13 157 4.8 6.4 0.00 0.00 0.00 90 1015.6
20260505190725 12 124 3.2 4.8 0.00 0.00 0.00 90 1015.8
20260505190225 12 122 3.2 4.8 0.00 0.00 0.00 91 1015.6
20260505185722 12 135 4.8 6.4 0.00 0.00 0.00 92 1015.7
20260505185218 12 120 6.4 8.0 0.00 0.00 0.00 92 1015.7
20260505184714 12 178 3.2 8.0 0.00 0.00 0.00 92 1015.7
20260505184212 12 119 3.2 6.4 0.00 0.00 0.00 92 1015.6
20260505183708 12 142 3.2 6.4 0.00 0.00 0.00 93 1015.9
20260505183206 12 124 3.2 6.4 0.00 0.00 0.00 94 1015.8
20260505182702 12 158 4.8 6.4 0.00 0.00 0.00 93 1015.9
20260505182159 12 120 4.8 6.4 0.00 0.00 0.00 94 1015.8
20260505181655 12 112 3.2 4.8 0.00 0.00 0.00 94 1015.7
20260505181153 11 158 6.4 8.0 0.00 0.00 0.00 94 1015.6
20260505180649 12 153 4.8 6.4 0.00 0.00 0.00 94 1015.7
20260505180147 12 117 8.0 8.0 0.00 0.00 0.00 94 1015.5
20260505175642 11 130 6.4 8.0 0.00 0.00 0.00 94 1015.5
20260505175139 11 170 3.2 4.8 0.00 0.00 0.00 94 1015.5
20260505174636 11 112 6.4 6.4 0.00 0.00 0.00 95 1015.5
20260505174132 11 113 4.8 6.4 0.00 0.00 0.00 96 1015.3
20260505173629 11 149 4.8 4.8 0.00 0.00 0.00 95 1015.4
20260505173125 11 146 4.8 6.4 0.00 0.00 0.00 96 1015.4
20260505172623 11 129 0.0 6.4 0.00 0.00 0.00 96 1015.4
20260505172120 11 164 4.8 6.4 0.00 0.00 0.00 96 1015.4
20260505171614 11 119 4.8 6.4 0.00 0.00 0.00 97 1015.2
20260505171112 11 117 4.8 6.4 0.00 0.00 0.00 97 1015.3
20260505170609 11 117 4.8 4.8 0.00 0.00 0.00 97 1015.3
20260505170105 11 153 6.4 6.4 0.00 0.00 0.00 97 1015.4
20260505165554 11 64 3.2 6.4 0.00 0.00 0.00 97 1015.2
20260505165051 11 97 3.2 8.0 0.00 0.00 0.00 98 1015.4
20260505164547 11 107 3.2 6.4 0.00 0.00 0.00 98 1015.4
20260505164044 11 110 4.8 6.4 0.00 0.00 0.00 98 1015.2
20260505163543 10 118 3.2 6.4 0.00 0.00 0.00 98 1015.3
20260505163039 11 147 1.6 4.8 0.00 0.00 0.00 98 1015.2
20260505162532 10 124 3.2 4.8 0.00 0.00 0.00 99 1015.3
20260505162029 10 159 3.2 6.4 0.00 0.00 0.00 99 1015.3
20260505161526 10 123 6.4 6.4 0.00 0.00 0.00 99 1015.3
20260505161023 10 128 4.8 6.4 0.00 0.00 0.00 99 1015.1
20260505160521 10 154 0.0 6.4 0.00 0.00 0.00 99 1015.2
20260505152957 10 132 3.2 6.4 0.00 0.00 0.00 99 1015.0
20260505152454 10 116 3.2 4.8 0.00 0.00 0.00 99 1014.7
20260505151949 10 104 4.8 6.4 0.00 0.00 0.00 99 1014.8
20260505151445 10 163 3.2 4.8 0.00 0.00 0.00 99 1014.8
20260505150943 10 136 3.2 6.4 0.00 0.00 0.00 99 1014.7
20260505150439 10 125 3.2 4.8 0.00 0.00 0.00 99 1014.7
20260505140404 10 132 4.8 4.8 0.00 0.00 0.00 99 1014.4